Meteo Giornale » Osservazioni meteo Stati Uniti (USA) » State College
ore: 02:55 - Osservazioni Meteo State College
Lat. 40° 51' N Lon. 77° 51' W Alt. 378 metri s.l.m.
22 °C
Nuvoloso
Temp. 24 Ore
19 °C
27 °C
Ovest/Sud-Ovest
7.4 Km/h
Dew point 22 °C
Umidità 100 %
Visibilità 10 Km
Il sole sorge alle ore 06:38
Il sole tramonta alle ore 19:44
| Data e Ora | Cielo e Fenomeni | T °C | DP °C | Um. % | Pres. hPa | Vis. km | Vento km/h | |
|---|---|---|---|---|---|---|---|---|
| Oggi h: 02:55 | Nuvoloso | 22 | 22 | 100 | 1018 | 10 | O/SO 7.4 | |
| Oggi h: 02:35 | Nuvoloso | 22 | 22 | 100 | 1018 | 10 | O/SO 13 | |
| Oggi h: 02:15 | Sereno | 22 | 21 | 94 | 1018 | 10 | O/SO 9.3 | |
| Oggi h: 01:55 | Sereno | 21 | 21 | 100 | 1018 | 10 | O 7.4 | |
| Oggi h: 01:35 | Sereno | 21 | 21 | 100 | 1018 | 10 | O 7.4 | |
| Oggi h: 01:15 | Sereno | 21 | 21 | 100 | 1018 | 10 | N 5.5 | |
| Oggi h: 00:55 | Sereno | 22 | 21 | 94 | 1018 | 10 | N 3.7 | |
| Oggi h: 00:35 | Sereno | 22 | 21 | 94 | 1018 | 10 | O 9.3 | |
| Oggi h: 00:15 | Sereno | 21 | 21 | 100 | 1018 | 10 | O/SO 7.4 | |
| Ieri h: 23:55 | Sereno | 22 | 21 | 94 | 1018 | 10 | O 9.3 | |
| Ieri h: 23:35 | Sereno | 23 | 22 | 94 | 1018 | 10 | N 3.7 | |
| Ieri h: 23:15 | Poco Nuvoloso | 23 | 22 | 94 | 1018 | 10 | N 1.8 | |
| Ieri h: 22:55 | Molto Nuvoloso | 23 | 22 | 94 | 1018 | 10 | N 3.7 | |
| Ieri h: 22:35 | Molto Nuvoloso | 23 | 22 | 94 | 1018 | 10 | N 5.5 | |
| Ieri h: 22:15 | Molto Nuvoloso | 23 | 22 | 94 | 1019 | 10 | N 3.7 | |
| Ieri h: 21:53 | Molto Nuvoloso | 23 | 23 | 100 | 1019 | 10 | S 7.4 | |
| Ieri h: 20:53 | Molto Nuvoloso | 24 | 23 | 94 | 1019 | 10 | N 5.5 | |
| Ieri h: 19:53 | Molto Nuvoloso | 24 | 23 | 94 | 1018 | 10 | S/SO 7.4 | |
| Ieri h: 18:53 | Molto Nuvoloso | 25 | 23 | 88 | 1018 | 10 | S/SE 7.4 | |
| Ieri h: 17:53 | Molto Nuvoloso | 26 | 22 | 78 | 1018 | 10 | SO 7.4 | |
| Ieri h: 16:53 | Nuvoloso | 27 | 23 | 78 | 1019 | 10 | S/SO 14.8 | |
| Ieri h: 15:53 | Nuvoloso | 27 | 23 | 78 | 1019 | 10 | S/SO 9.3 | |
| Ieri h: 14:53 | Nuvoloso | 25 | 22 | 83 | 1020 | 10 | S/SO 9.3 | |
| Ieri h: 13:53 | Nuvoloso | 23 | 20 | 83 | 1020 | 10 | N 0 | |
| Ieri h: 12:53 | Nuvoloso | 23 | 20 | 83 | 1021 | 10 | N 5.5 | |
| Ieri h: 11:53 | Molto Nuvoloso | 22 | 20 | 88 | 1021 | 10 | N 5.5 | |
| Ieri h: 10:53 | Nuvoloso | 21 | 20 | 94 | 1021 | 10 | N 5.5 | |
| Ieri h: 10:06 | Pioggia Foschia | 20 | 20 | 100 | 1021 | 6 | S/SO 7.4 | |
| Ieri h: 09:53 | Pioggia Foschia | 20 | 20 | 100 | 1021 | 5 | S/SO 7.4 | |
| Ieri h: 09:39 | Pioggia Foschia | 19 | 19 | 100 | 1021 | 3 | S/SE 7.4 | |
| Ieri h: 08:53 | Foschia | 19 | 19 | 100 | 1022 | 6 | N 5.5 | |
| Ieri h: 07:53 | Nebbia | 19 | 19 | 100 | 1021 | 10 | N 5.5 | |
| Ieri h: 06:53 | Nebbia | 19 | 19 | 100 | 1021 | 10 | N 0 | |
| Ieri h: 05:53 | Foschia | 19 | 19 | 100 | 1020 | 6 | N 0 | |
| Ieri h: 05:15 | Foschia | 19 | 19 | 100 | 1020 | 8 | N 1.8 | |
| Ieri h: 04:55 | Foschia | 19 | 19 | 100 | 1020 | 10 | N 3.7 | |
| Ieri h: 04:35 | Foschia | 19 | 19 | 100 | 1020 | 8 | N 3.7 | |
| Ieri h: 04:15 | Sereno | 19 | 19 | 100 | 1020 | 14 | N 5.5 | |
| Ieri h: 03:55 | Sereno | 19 | 19 | 100 | 1020 | 10 | N 3.7 | |
| Ieri h: 03:35 | Sereno | 19 | 19 | 100 | 1020 | 10 | N 5.5 | |



